Weather History for Osoyoos, BC

Change the Weather History Date:

Wednesday, April 10, 2013

  Actual Average Record
Temperature  
Mean Temperature 56 °F -  
Max Temperature 62 °F - - ()
Min Temperature 49 °F - - ()
Degree Days  
Heating Degree Days 10    
Growing Degree Days 6 (Base 50)    
Moisture  
Dew Point 37 °F    
Average Humidity 51    
Maximum Humidity 73    
Minimum Humidity 25    
Precipitation  
Precipitation 0.00 in - - ()
Sea Level Pressure  
Sea Level Pressure 29.93 in    
Wind  
Wind Speed 6 mph ()    
Max Wind Speed 12 mph    
Max Gust Speed 23 mph    
T = Trace of Precipitation, MM = Missing Value Source: Averaged Metar Reports

Daily Weather History Graph

Daily Weather History Graph

Search for Another Location

Airport:

Trip Planner

Search our weather history database for the weather conditions in past years. The results will help you decide how hot, cold, wet, or windy it might be!

Date:

Astronomy

Apr. 10, 2013 Rise Set
Actual Time 6:15 AM PDT 7:42 PM PDT
Civil Twilight 5:43 AM PDT 8:15 PM PDT
Nautical Twilight 5:03 AM PDT 8:56 PM PDT
Astronomical Twilight 4:19 AM PDT 9:39 PM PDT
Moon 6:11 AM PDT (4/10) 8:29 PM PDT (4/10)
Length of Visible Light 14h 32m
Length of Day
13h 27m
Waxing Crescent, 0% of the Moon is Illuminated
Apr 10
Waxing Crescent
Apr 18
First Quarter
Apr 25
Full
May 2
Last Quarter
May 9
New

Hourly Weather History & Observations

Time (PDT) Temp. Dew Point Humidity Pressure Visibility Wind Dir Wind Speed Gust Speed Precip Events Conditions
12:00 AM 55.8 °F 37.2 °F 50% 30.11 in - SE 6.9 mph - N/A   Unknown
1:00 AM 55.2 °F 37.0 °F 50% 30.10 in - SE 6.9 mph - N/A   Unknown
2:00 AM 54.1 °F 37.6 °F 54% 30.07 in - SE 6.9 mph - N/A   Unknown
3:00 AM 53.4 °F 37.8 °F 55% 30.06 in - SE 5.8 mph - N/A   Unknown
4:00 AM 53.2 °F 37.9 °F 56% 30.04 in - SSE 6.9 mph - N/A   Unknown
5:00 AM 52 °F 38 °F 48% 30.01 in - SSE 5.8 mph - -  
5:00 AM 52.3 °F 38.1 °F 58% 30.01 in - SSE 5.8 mph - N/A   Unknown
6:00 AM 52.3 °F 37.4 °F 57% 29.98 in - SSE 8.1 mph - N/A   Unknown
7:00 AM 51.8 °F 37.8 °F 59% 29.96 in - SSE 8.1 mph - N/A   Unknown
8:00 AM 51.3 °F 38.8 °F 63% 29.93 in - South 6.9 mph - N/A   Unknown
9:00 AM 51.6 °F 37.9 °F 60% 29.89 in - SSE 10.4 mph - N/A   Unknown
10:00 AM 52.5 °F 39.6 °F 61% 29.84 in - South 5.8 mph - N/A   Unknown
11:00 AM 53 °F 40 °F 51% 29.82 in - SSE 4.6 mph - -  
11:00 AM 52.7 °F 40.1 °F 62% 29.82 in - SSE 4.6 mph - N/A   Unknown
12:00 PM 51.8 °F 43.5 °F 73% 29.82 in - East 5.8 mph - N/A   Unknown
1:00 PM 55.4 °F 43.9 °F 65% 29.79 in - SE 8.1 mph - N/A   Unknown
2:00 PM 58.3 °F 43.2 °F 57% 29.77 in - SSE 11.5 mph 17.3 mph N/A   Unknown
3:00 PM 58.8 °F 43.3 °F 56% 29.79 in - NNW 5.8 mph - N/A   Unknown
4:00 PM 59.2 °F 40.1 °F 49% 29.81 in - NNW 11.5 mph 23.0 mph N/A   Unknown
5:00 PM 62 °F 35 °F 25% 29.82 in - NNW 11.5 mph - -  
5:00 PM 61.5 °F 35.2 °F 37% 29.82 in - NNW 11.5 mph 20.7 mph N/A   Unknown
6:00 PM 61.3 °F 32.0 °F 33% 29.86 in - North 11.5 mph 21.9 mph N/A   Unknown
7:00 PM 57.2 °F 34.7 °F 43% 29.90 in - NNW 10.4 mph 19.6 mph N/A   Unknown
8:00 PM 53.8 °F 34.2 °F 47% 29.94 in - North 3.5 mph - N/A   Unknown
10:00 PM 53.6 °F 25.3 °F 34% 30.01 in - North 4.6 mph - N/A   Unknown
11:00 PM 49 °F 30 °F 35% 30.02 in - West 1.2 mph - -  
11:00 PM 49.3 °F 30.0 °F 48% 30.02 in - West 1.2 mph - N/A   Unknown